WetterOnline ( https://www.wetteronline.de )

Wetter aktuell Bad Doberan

Aktuelles Wetter: Rostock-Warnemünde (10m)

6-stündlich | Neueste Meldungen
Ortszeit Temperatur Wetter
So, 04.12. 7:00 0.3° C bewölkt
So, 04.12. 1:00 -0.3° C bedeckt
Sa, 03.12. 19:00 -0.4° C bedeckt
Sa, 03.12. 13:00 1.6° C bedeckt
Sa, 03.12. 7:00 1.2° C bewölkt
Sa, 03.12. 1:00 2.1° C bedeckt
Fr, 02.12. 19:00 3.6° C bedeckt
Fr, 02.12. 13:00 2.9° C bedeckt
Ortszeit Temperatur Wetter
So, 04.12. 9:30 1.8° C bedeckt
So, 04.12. 9:20 1.8° C bedeckt
So, 04.12. 9:10 1.7° C bedeckt
So, 04.12. 9:00 1.4° C bedeckt
So, 04.12. 8:50 1.4° C bedeckt
So, 04.12. 8:40 1.2° C bedeckt
So, 04.12. 8:30 1.0° C bedeckt
So, 04.12. 8:00 1.2° C bedeckt
So, 04.12. 7:30 0.8° C bewölkt
So, 04.12. 7:00 0.3° C bewölkt
So, 04.12. 6:30 0.4° C bedeckt
Ortszeit Relative Feuchte Sichtweite
So, 04.12. 7:00 88% 8 km
So, 04.12. 1:00 83% 9 km
Sa, 03.12. 19:00 80% 13 km
Sa, 03.12. 13:00 82% 18 km
Sa, 03.12. 7:00 83% 18 km
Sa, 03.12. 1:00 80% 27 km
Fr, 02.12. 19:00 82% 35 km
Fr, 02.12. 13:00 78% 22 km
Ortszeit Relative Feuchte Sichtweite
So, 04.12. 9:30 87% 10 km
So, 04.12. 9:20 87% -
So, 04.12. 9:10 87% -
So, 04.12. 9:00 88% 10 km
So, 04.12. 8:50 88% -
So, 04.12. 8:40 88% -
So, 04.12. 8:30 90% 9 km
So, 04.12. 8:00 89% 9 km
So, 04.12. 7:30 89% 8 km
So, 04.12. 7:00 88% 8 km
So, 04.12. 6:30 86% 9 km
Ortszeit Niederschlagsmenge Niederschlagsart
So, 04.12. 7:00 0.0 l/m2 in 12 Std. -
So, 04.12. 1:00 0.0 l/m2 in 6 Std. -
Sa, 03.12. 19:00 0.1 l/m2 in 12 Std. Schnee, Regen
Sa, 03.12. 13:00 0.1 l/m2 in 6 Std. Schnee, Regen
Sa, 03.12. 7:00 0.1 l/m2 in 12 Std. Schnee, Sprühregen
Sa, 03.12. 1:00 0.0 l/m2 in 6 Std. -
Fr, 02.12. 19:00 0.0 l/m2 in 12 Std. -
Fr, 02.12. 13:00 0.0 l/m2 in 6 Std. -
Ortszeit Niederschlagsmenge Niederschlagsart
So, 04.12. 9:30 0.0 l/m2 in 30 Min -
So, 04.12. 9:20 keine Meldung -
So, 04.12. 9:10 keine Meldung -
So, 04.12. 9:00 0.0 l/m2 in 1 Std. -
So, 04.12. 8:50 keine Meldung -
So, 04.12. 8:40 keine Meldung -
So, 04.12. 8:30 0.0 l/m2 in 30 Min -
So, 04.12. 8:00 0.0 l/m2 in 1 Std. -
So, 04.12. 7:30 0.0 l/m2 in 30 Min -
So, 04.12. 7:00 0.0 l/m2 in 1 Std. -
So, 04.12. 6:30 0.0 l/m2 in 30 Min -
Ortszeit Stärke Spitze Richtung
km/h Bft. km/h Grad Sektor
So, 04.12. 7:00 9 2 20 100° O
So, 04.12. 1:00 11 2 22 120° SO
Sa, 03.12. 19:00 9 2 26 100° O
Sa, 03.12. 13:00 7 2 25 110° O
Sa, 03.12. 7:00 7 2 25 90° O
Sa, 03.12. 1:00 9 2 30 90° O
Fr, 02.12. 19:00 9 2 20 90° O
Fr, 02.12. 13:00 11 2 18 50° NO
Ortszeit Stärke Spitze Richtung
km/h Bft. km/h Grad Sektor
So, 04.12. 9:30 9 2 19 100° O
So, 04.12. 9:20 9 2 - 100° O
So, 04.12. 9:10 9 2 - 100° O
So, 04.12. 9:00 9 2 19 100° O
So, 04.12. 8:50 9 2 - 100° O
So, 04.12. 8:40 7 2 - 100° O
So, 04.12. 8:30 9 2 19 90° O
So, 04.12. 8:00 9 2 19 80° O
So, 04.12. 7:30 7 2 18 90° O
So, 04.12. 7:00 9 2 20 100° O
So, 04.12. 6:30 11 2 22 110° O
Ortszeit Untergrenze Bedeckung Gattung
total tief tief mittel hoch
So, 04.12. 7:00 1020 m 7/8 7/8 - - -
So, 04.12. 1:00 1050 m 8/8 8/8 - - -
Sa, 03.12. 19:00 420 m 8/8 8/8 - - -
Sa, 03.12. 13:00 330 m 8/8 8/8 - - -
Sa, 03.12. 7:00 540 m 7/8 7/8 - - -
Sa, 03.12. 1:00 720 m 8/8 8/8 - - -
Fr, 02.12. 19:00 2700 m 8/8 8/8 - - -
Fr, 02.12. 13:00 1050 m 8/8 8/8 - - -
Ortszeit Bedeckungsgrad in Achtel und Wolkenuntergrenze
So, 04.12. 9:30 8(1050m)
So, 04.12. 9:20 8(1050m)
So, 04.12. 9:10 8
So, 04.12. 9:00 8(1050m)
So, 04.12. 8:50 8(1050m)
So, 04.12. 8:40 8
So, 04.12. 8:30 8(1080m)
So, 04.12. 8:00 8(1170m)
So, 04.12. 7:30 7(1140m)
So, 04.12. 7:00 1(1020m) 7(1500m)
So, 04.12. 6:30 7(1050m) 8(1500m)
Ortszeit Luftdruck NN (hPa) Tendenz (hPa in 3 Std.)
So, 04.12. 7:00 1024 - 0,2
So, 04.12. 1:00 1025 - 0,2
Sa, 03.12. 19:00 1024 + 0,1
Sa, 03.12. 13:00 1025 - 1,3
Sa, 03.12. 7:00 1027 - 0,9
Sa, 03.12. 1:00 1029 - 0,2
Fr, 02.12. 19:00 1029 + 0,3
Fr, 02.12. 13:00 1029 - 0,3
Ortszeit Luftdruck NN (hPa) Tendenz (hPa in 3 Std.)
So, 04.12. 9:30 1024 + 0,1
So, 04.12. 9:20 1024 keine Meldung
So, 04.12. 9:10 1024 keine Meldung
So, 04.12. 9:00 1024 + 0,1
So, 04.12. 8:50 1024 keine Meldung
So, 04.12. 8:40 1024 keine Meldung
So, 04.12. 8:30 1024 + 0,2
So, 04.12. 8:00 1024 0,0
So, 04.12. 7:30 1024 - 0,3
So, 04.12. 7:00 1024 - 0,2
So, 04.12. 6:30 1024 - 0,4
Ortszeit Schneehöhe (cm)
So, 04.12. 7:00 0
So, 04.12. 1:00 0
Sa, 03.12. 19:00 0
Sa, 03.12. 13:00 0
Sa, 03.12. 7:00 0
Sa, 03.12. 1:00 0
Fr, 02.12. 19:00 0
Fr, 02.12. 13:00 0
Ortszeit Schneehöhe (cm)
So, 04.12. 9:30 0
So, 04.12. 9:20 0
So, 04.12. 9:10 0
So, 04.12. 9:00 0
So, 04.12. 8:50 0
So, 04.12. 8:40 0
So, 04.12. 8:30 0
So, 04.12. 8:00 0
So, 04.12. 7:30 0
So, 04.12. 7:00 0
So, 04.12. 6:30 0
Link zu dieser Seite / Seite empfehlen

Das Wetter in ...